Regional Weather Roundup
Issued by NWS

Home | Current Version | Previous Version | Graphics & Text | Print | Product List | Glossary On
Versions: 1 2 3 4 5 6 7 8 9 10 11 12 13 14 15 16 17 18 19 20 21 22 23 24 25 26 27 28 29 30 31 32 33 34 35 36 37 38 39 40 41 42 43 44 45 46 47 48 49 50
000
ASUS43 KOAX 221902
RWRNE

WEATHER ROUNDUP FOR NEBRASKA
NATIONAL WEATHER SERVICE OMAHA NE
200 PM CDT FRI AUG 22 2014

NOTES: SATELLITE DATA IS BEING USED TO AUGMENT CLOUD COVER ABOVE
       12000 FEET.
       "FAIR" INDICATES FEW OR NO CLOUDS BELOW 12,000 FEET WITH NO
       SIGNIFICANT WEATHER AND/OR OBSTRUCTIONS TO VISIBILITY.

  * THESE STATIONS DO NOT REPORT WEATHER SUCH AS RAIN...SNOW OR FOG.

NEZ001>004-019>022-054>056-222000-
NEBRASKA PANHANDLE

CITY           SKY/WX    TMP DP  RH WIND       PRES   REMARKS
SCOTTSBLUFF    CLOUDY    74  53  48 E5        30.07F
ALLIANCE       CLOUDY    77  54  44 VRB5      30.06F
CHADRON        CLOUDY    71  59  65 VRB3      30.05F
KIMBALL        PTSUNNY   76  54  45 S6        30.10F
SIDNEY         LGT RAIN  63  59  87 W10       30.14R FOG
$$

NEZ057>060-069>072-079>082-222000-
SOUTHWEST NEBRASKA

CITY           SKY/WX    TMP DP  RH WIND       PRES   REMARKS
NORTH PLATTE   CLOUDY    80  63  55 NE9       30.03F
IMPERIAL       PTSUNNY   81  59  47 N14       30.04F
LEXINGTON      MOSUNNY   88  71  56 NE12      29.99S HX  93
MCCOOK         MOSUNNY   90  62  39 N17       29.98F HX  90
OGALLALA       CLOUDY    72  61  68 N12       30.05S
$$

NEZ005>010-023>029-035>040-094-222000-
NORTH CENTRAL NEBRASKA

CITY           SKY/WX    TMP DP  RH WIND       PRES   REMARKS
VALENTINE      CLOUDY    77  61  57 W3        30.05R
AINSWORTH      CLOUDY    77  63  61 CALM      30.04S
BROKEN BOW     PTSUNNY   86  69  56 NE12      30.00S HX  90
O`NEILL        CLOUDY    83  71  68 NE6       30.00F
ORD            MOSUNNY   88  67  49 E6        29.96F HX  91
THEDFORD       CLOUDY    73  63  72 CALM      30.06F
$$

NEZ041-046>049-061>064-073>077-083>087-222000-
SOUTH CENTRAL NEBRASKA

CITY           SKY/WX    TMP DP  RH WIND       PRES   REMARKS
GRAND ISLAND   MOSUNNY   87  74  64 E7        29.96F HX  95
AURORA         PTSUNNY   85  76  73 E6        29.95F HX  94
HASTINGS       MOSUNNY   85  70  60 E9        29.95F
HEBRON         CLOUDY    84  67  57 SE3       29.92S
HOLDREGE       MOSUNNY   85  72  65 NE12      29.96F HX  90
KEARNEY *      MOSUNNY   82  73  74 NE13      29.96F
YORK           PTSUNNY   84 N/A N/A E5        29.95S
$$

NEZ011>018-030>034-042>045-222000-
NORTHEAST NEBRASKA

CITY           SKY/WX    TMP DP  RH WIND       PRES   REMARKS
NORFOLK        MOSUNNY   89  71  55 NE10      29.95S HX  95
ALBION         MOSUNNY   86  70  58 NE8G18    29.96F HX  91
BLAIR          MOSUNNY   89  76  64 NE8       29.92F HX  99
FREMONT        LGT RAIN  88  74  63 NE3       29.92F HX  97
TEKAMAH        LGT RAIN  86  77  74 NE6       29.92F HX  97
WAYNE          SUNNY     86  72  62 E5        29.97S HX  92
$$

NEZ050>053-065>068-078-088>093-222000-
SOUTHEAST NEBRASKA

CITY           SKY/WX    TMP DP  RH WIND       PRES   REMARKS
LINCOLN        PTSUNNY   90  73  57 NE6       29.91F HX  98
OMAHA EPPLEY   PTSUNNY   91  75  59 N7        29.90F HX 101
BEATRICE       PTSUNNY   82  73  73 SW6       29.93S
FALLS CITY     CLOUDY    81  73  76 W7        29.94R
NEBRASKA CITY  PTSUNNY   85  73  67 SW9       29.93R HX  91
PLATTSMOUTH    MOSUNNY   89  72  56 NE3       29.91F HX  96
$$

NEZ044-045-051>053-067-222000-
OMAHA AREA

CITY           SKY/WX    TMP DP  RH WIND       PRES   REMARKS
OMAHA EPPLEY   PTSUNNY   91  75  59 N7        29.90F HX 101
BLAIR          MOSUNNY   89  76  64 NE8       29.92F HX  99
FREMONT        LGT RAIN  88  74  63 NE3       29.92F HX  97
MILLARD        MOSUNNY   90  74  58 CALM      29.90F HX  99
PLATTSMOUTH    MOSUNNY   89  72  56 NE3       29.91F HX  96
WAHOO          MOCLDY    89  72  57 MISG      29.92F HX  96
$$


USA.gov is the U.S. government's official web portal to all federal, state and local government web resources and services.